Tracking 19576 objects as of 17-Feb-2019
HD Live streaming from Space Station
objects crossing your sky now

PALAPA B1

Track PALAPA B1 now!
PALAPA B1 is classified as:


NORAD ID: 14134
Int'l Code: 1983-059C
Perigee: 35,779.7 km
Apogee: 35,841.6 km
Inclination: 14.6 °
Period: 1,437.0 minutes
Semi major axis: 42181 km
RCS: 1.2604 m2 (large)
Launch date: June 18, 1983
Source: Indonesia (INDO)
Launch site: AIR FORCE EASTERN TEST RANGE (AFETR)
aabbcc
Your satellite tracking list
Your tracking list is empty




NASA's NSSDC Master Catalog

Two Line Element Set (TLE):
1 14134U 83059C   19047.59515087 -.00000014 +00000-0 +00000-0 0  9995
2 14134 014.6290 351.5959 0007330 354.9509 189.8646 01.00211461093967
Source of the keplerian elements: AFSPC